Viroqua, WI

12:29 PM CDT on March 27, 2017 (GMT -0500)
Viroqua

Weather History for KY51 - January, 2013

Change the Weather History Date:

Monday, January 21, 2013

  Actual Average (KCMY) Record (KCMY)
Temperature  
Mean Temperature 0 °F -  
Max Temperature 6 °F 26 °F 50 °F (1964)
Min Temperature -5 °F 6 °F -31 °F (1970)
Degree Days  
Heating Degree Days 64    
Moisture  
Dew Point -8 °F    
Average Humidity 71    
Maximum Humidity 85    
Minimum Humidity 56    
Precipitation  
Precipitation 0.00 in - - ()
Sea Level Pressure  
Sea Level Pressure 30.17 in    
Wind  
Wind Speed 13 mph (WNW)    
Max Wind Speed 18 mph    
Max Gust Speed 25 mph    
Visibility 8 miles    
Events      
Averages and records for this station are not official NWS values.
T = Trace of Precipitation, MM = Missing Value Source: NWS Daily Summary

Daily Weather History Graph

Daily Weather History Graph

Search for Another Location

Airport or City:

Trip Planner

Search our weather history database for the weather conditions in past years. The results will help you decide how hot, cold, wet, or windy it might be!

Date:

Astronomy

Jan. 21, 2013 Rise Set
Actual Time 7:29 AM CST 5:00 PM CST
Civil Twilight 6:58 AM CST 5:31 PM CST
Nautical Twilight 6:23 AM CST 6:06 PM CST
Astronomical Twilight 5:49 AM CST 6:41 PM CST
Moon 12:40 PM CST (1/21) 2:58 AM CST (1/21)
Length of Visible Light 10h 33m
Length of Day
9h 30m
Waxing Gibbous, 75% of the Moon is Illuminated
Jan 21
Waxing Gibbous
Jan 26
Full
Feb 3
Last Quarter
Feb 10
New
Feb 17
First Quarter

Hourly Weather History & Observations

Time (CST) Temp. Windchill Dew Point Humidity Pressure Visibility Wind Dir Wind Speed Gust Speed Precip Events Conditions
12:15 AM 6.8 °F -6.9 °F -0.4 °F 72% 30.13 in 7.0 mi WNW 9.2 mph - N/A   Overcast
12:35 AM 6.8 °F -8.6 °F -0.4 °F 72% 30.13 in 10.0 mi West 11.5 mph 17.3 mph N/A   Overcast
12:55 AM 5.0 °F -10.8 °F 1.4 °F 85% 30.13 in 3.0 mi West 11.5 mph 16.1 mph N/A   Overcast
1:15 AM 5.0 °F -11.6 °F 1.4 °F 85% 30.12 in 3.0 mi WNW 12.7 mph - N/A   Overcast
1:35 AM 5.0 °F -13.0 °F -2.2 °F 72% 30.13 in 4.0 mi WNW 15.0 mph 19.6 mph N/A   Overcast
1:55 AM 3.2 °F -13.9 °F -2.2 °F 78% 30.13 in 5.0 mi WNW 12.7 mph - N/A   Overcast
2:15 AM 3.2 °F -15.9 °F -5.8 °F 66% 30.13 in 10.0 mi WNW 16.1 mph - N/A   Scattered Clouds
2:35 AM 1.4 °F -18.2 °F -5.8 °F 72% 30.13 in 10.0 mi WNW 16.1 mph 23.0 mph N/A   Mostly Cloudy
2:55 AM 1.4 °F -18.8 °F -5.8 °F 72% 30.13 in 10.0 mi WNW 17.3 mph 21.9 mph N/A   Scattered Clouds
3:15 AM 1.4 °F -16.1 °F -5.8 °F 72% 30.13 in 5.0 mi NW 12.7 mph - N/A   Mostly Cloudy
3:35 AM 1.4 °F -12.5 °F -4.0 °F 78% 30.12 in 5.0 mi WNW 8.1 mph - N/A   Overcast
3:55 AM 1.4 °F -15.3 °F -4.0 °F 78% 30.12 in 2.5 mi WNW 11.5 mph - N/A   Overcast
4:15 AM -0.4 °F -19.9 °F -5.8 °F 78% 30.12 in 7.0 mi WNW 15.0 mph - N/A   Overcast
4:35 AM -0.4 °F -18.4 °F -5.8 °F 78% 30.13 in 10.0 mi WNW 12.7 mph - N/A   Overcast
4:55 AM -0.4 °F -18.4 °F -7.6 °F 72% 30.13 in 7.0 mi WNW 12.7 mph 19.6 mph N/A   Overcast
5:15 AM -0.4 °F -21.2 °F -7.6 °F 72% 30.13 in 7.0 mi WNW 17.3 mph 25.3 mph N/A   Overcast
5:35 AM -2.2 °F -24.1 °F -9.4 °F 71% 30.13 in 7.0 mi NW 18.4 mph 24.2 mph N/A   Overcast
5:55 AM -2.2 °F -22.2 °F -7.6 °F 78% 30.13 in 10.0 mi WNW 15.0 mph 24.2 mph N/A   Mostly Cloudy
6:15 AM -4.0 °F -25.2 °F -9.4 °F 78% 30.13 in 10.0 mi NW 16.1 mph 20.7 mph N/A   Mostly Cloudy
6:35 AM -4.0 °F -25.2 °F -9.4 °F 78% 30.14 in 10.0 mi WNW 16.1 mph 19.6 mph N/A   Scattered Clouds
6:55 AM -4.0 °F -25.2 °F -9.4 °F 78% 30.15 in 10.0 mi WNW 16.1 mph 21.9 mph N/A   Mostly Cloudy
7:15 AM -4.0 °F -24.5 °F -11.2 °F 71% 30.15 in 10.0 mi WNW 15.0 mph 20.7 mph N/A   Mostly Cloudy
7:35 AM -4.0 °F -25.8 °F -11.2 °F 71% 30.15 in 10.0 mi WNW 17.3 mph 21.9 mph N/A   Mostly Cloudy
7:55 AM -4.0 °F -24.5 °F -9.4 °F 78% 30.16 in 4.0 mi WNW 15.0 mph 19.6 mph N/A   Overcast
8:15 AM -4.0 °F -23.7 °F -9.4 °F 78% 30.17 in 5.0 mi WNW 13.8 mph - N/A   Overcast
8:35 AM -4.0 °F -25.8 °F -13.0 °F 65% 30.17 in 10.0 mi NW 17.3 mph 23.0 mph N/A   Mostly Cloudy
8:55 AM -4.0 °F -24.5 °F -9.4 °F 78% 30.18 in 10.0 mi WNW 15.0 mph 21.9 mph N/A   Mostly Cloudy
9:15 AM -4.0 °F -23.7 °F -13.0 °F 65% 30.19 in 7.0 mi WNW 13.8 mph 23.0 mph N/A   Overcast
9:35 AM -4.0 °F -24.5 °F -13.0 °F 65% 30.20 in 10.0 mi WNW 15.0 mph 21.9 mph N/A   Mostly Cloudy
9:55 AM -4.0 °F -25.8 °F -13.0 °F 65% 30.20 in 7.0 mi WNW 17.3 mph 23.0 mph N/A   Mostly Cloudy
10:15 AM -2.2 °F -20.7 °F -11.2 °F 66% 30.20 in 10.0 mi West 12.7 mph - N/A   Mostly Cloudy
10:35 AM -4.0 °F -23.7 °F -9.4 °F 78% 30.20 in 4.0 mi West 13.8 mph - N/A   Overcast
10:55 AM -4.0 °F -25.2 °F -11.2 °F 71% 30.20 in 7.0 mi WNW 16.1 mph 20.7 mph N/A   Overcast
11:15 AM -2.2 °F -22.9 °F -9.4 °F 71% 30.20 in 7.0 mi WNW 16.1 mph 19.6 mph N/A   Overcast
11:55 AM -0.4 °F -17.6 °F -11.2 °F 60% 30.19 in 10.0 mi West 11.5 mph - N/A   Overcast
12:15 PM -0.4 °F -20.5 °F -9.4 °F 66% 30.18 in 7.0 mi NW 16.1 mph 23.0 mph N/A   Overcast
12:35 PM -0.4 °F -21.2 °F -11.2 °F 60% 30.18 in 10.0 mi NW 17.3 mph 23.0 mph N/A   Overcast
12:55 PM -0.4 °F -18.4 °F -11.2 °F 60% 30.17 in 7.0 mi WNW 12.7 mph 18.4 mph N/A   Overcast
1:15 PM -0.4 °F -19.2 °F -11.2 °F 60% 30.17 in 7.0 mi WNW 13.8 mph 19.6 mph N/A   Overcast
1:35 PM 1.4 °F -14.5 °F -11.2 °F 56% 30.16 in 10.0 mi West 10.4 mph - N/A   Mostly Cloudy
1:55 PM 1.4 °F -18.2 °F -11.2 °F 56% 30.16 in 10.0 mi West 16.1 mph 20.7 mph N/A   Scattered Clouds
2:15 PM 1.4 °F -17.6 °F -9.4 °F 61% 30.16 in 10.0 mi WNW 15.0 mph 20.7 mph N/A   Scattered Clouds
2:35 PM 1.4 °F -18.2 °F -9.4 °F 61% 30.16 in 10.0 mi WNW 16.1 mph 19.6 mph N/A   Scattered Clouds
2:55 PM 1.4 °F -17.6 °F -9.4 °F 61% 30.17 in 10.0 mi WNW 15.0 mph - N/A   Mostly Cloudy
3:15 PM 1.4 °F -16.9 °F -9.4 °F 61% 30.17 in 10.0 mi WNW 13.8 mph 18.4 mph N/A   Mostly Cloudy
3:35 PM -0.4 °F -19.2 °F -9.4 °F 66% 30.17 in 10.0 mi West 13.8 mph 18.4 mph N/A   Mostly Cloudy
3:55 PM 1.4 °F -16.1 °F -9.4 °F 61% 30.16 in 10.0 mi WNW 12.7 mph 17.3 mph N/A   Scattered Clouds
4:15 PM -0.4 °F -17.6 °F -9.4 °F 66% 30.16 in 10.0 mi West 11.5 mph - N/A   Scattered Clouds
4:35 PM -0.4 °F -16.7 °F -9.4 °F 66% 30.17 in 10.0 mi WNW 10.4 mph - N/A   Scattered Clouds
4:55 PM -0.4 °F -15.7 °F -9.4 °F 66% 30.16 in 10.0 mi WNW 9.2 mph - N/A   Mostly Cloudy
5:15 PM -0.4 °F -17.6 °F -9.4 °F 66% 30.16 in 10.0 mi West 11.5 mph - N/A   Scattered Clouds
5:35 PM -0.4 °F -15.7 °F -9.4 °F 66% 30.16 in 10.0 mi West 9.2 mph 16.1 mph N/A   Clear
5:55 PM -0.4 °F -18.4 °F -9.4 °F 66% 30.17 in 10.0 mi West 12.7 mph 18.4 mph N/A   Clear
6:15 PM -0.4 °F -16.7 °F -7.6 °F 72% 30.17 in 10.0 mi West 10.4 mph - N/A   Clear
6:35 PM -0.4 °F -15.7 °F -7.6 °F 72% 30.18 in 10.0 mi West 9.2 mph - N/A   Scattered Clouds
6:55 PM -0.4 °F -17.6 °F -7.6 °F 72% 30.18 in 10.0 mi WNW 11.5 mph 16.1 mph N/A   Mostly Cloudy
7:15 PM -0.4 °F -16.7 °F -7.6 °F 72% 30.18 in 10.0 mi WNW 10.4 mph - N/A   Overcast
7:35 PM -2.2 °F -20.7 °F -7.6 °F 78% 30.18 in 7.0 mi WNW 12.7 mph 18.4 mph N/A   Mostly Cloudy
7:55 PM -2.2 °F -19.9 °F -9.4 °F 71% 30.19 in 10.0 mi WNW 11.5 mph 17.3 mph N/A   Scattered Clouds
8:15 PM -2.2 °F -19.9 °F -9.4 °F 71% 30.19 in 10.0 mi West 11.5 mph - N/A   Mostly Cloudy
8:35 PM -4.0 °F -21.2 °F -9.4 °F 78% 30.19 in 10.0 mi West 10.4 mph - N/A   Mostly Cloudy
8:55 PM -4.0 °F -21.2 °F -9.4 °F 78% 30.20 in 10.0 mi WNW 10.4 mph 17.3 mph N/A   Mostly Cloudy
9:15 PM -4.0 °F -22.1 °F -9.4 °F 78% 30.20 in 10.0 mi WNW 11.5 mph 19.6 mph N/A   Scattered Clouds
9:35 PM -4.0 °F -22.1 °F -9.4 °F 78% 30.21 in 10.0 mi WNW 11.5 mph - N/A   Clear
9:55 PM -4.0 °F -23.0 °F -11.2 °F 71% 30.21 in 10.0 mi WNW 12.7 mph - N/A   Clear
10:15 PM -4.0 °F -22.1 °F -9.4 °F 78% 30.22 in 7.0 mi WNW 11.5 mph - N/A   Mostly Cloudy
10:35 PM -4.0 °F -17.8 °F -9.4 °F 78% 30.22 in 7.0 mi WNW 6.9 mph - N/A   Mostly Cloudy
10:55 PM -4.0 °F -20.2 °F -9.4 °F 78% 30.22 in 5.0 mi WNW 9.2 mph - N/A   Mostly Cloudy
11:15 PM -5.8 °F -22.4 °F -9.4 °F 84% 30.23 in 5.0 mi WNW 9.2 mph - N/A   Mostly Cloudy
11:35 PM -5.8 °F -21.2 °F -9.4 °F 84% 30.22 in 10.0 mi NW 8.1 mph - N/A   Scattered Clouds
11:55 PM -5.8 °F -21.2 °F -9.4 °F 84% 30.22 in 10.0 mi WNW 8.1 mph - N/A   Clear